Regional Weather Roundup
Issued by NWS

Home | Current Version | Previous Version | Graphics & Text | Print | Product List | Glossary On
Versions: 1 2 3 4 5 6 7 8 9 10 11 12 13 14 15 16 17 18 19 20 21 22 23 24 25 26 27 28 29 30 31 32 33 34 35 36 37 38 39 40 41 42 43 44 45 46 47 48 49 50
000
ASUS43 KMPX 111210
RWRMN
WEATHER ROUNDUP FOR MINNESOTA
NATIONAL WEATHER SERVICE TWIN CITIES/CHANHASSEN MN
600 AM CST MON DEC 11 2017


NOTE: "FAIR" INDICATES FEW OR NO CLOUDS BELOW 12,000 FEET WITH NO
SIGNIFICANT WEATHER AND/OR OBSTRUCTIONS TO VISIBILITY. N/A MEANS
CURRENT SKY AND/OR WEATHER CONDITIONS ARE NOT AVAILABLE.

MNZ060>063-068>070-111300-
   Twin Cities Metro

CITY           SKY/WX    TMP DP  RH WIND       PRES   REMARKS
TWIN CITIES    CLOUDY    29  27  92 SE5       29.74F WCI  24
6HR MIN TEMP:  25; 6HR MAX TEMP:  29; 6HR PCP:  0.08;

ST PAUL        CLOUDY    28  26  92 SE7       29.75F WCI  21
CRYSTAL        CLOUDY    28  23  81 SE3       29.72F
BLAINE         MIX PCPN  30  28  93 SE5       29.72F WCI  25
LAKEVILLE      CLOUDY    28  27  93 S3        29.72F
EDEN PRAIRIE   CLOUDY    30  26  85 S5        29.72F WCI  25
6HR MIN TEMP:  26; 6HR MAX TEMP:  30; 6HR PCP:  0.05;

SOUTH ST PAUL  CLOUDY    28  27  93 CALM      29.74F
LAKE ELMO      CLOUDY    28  27  93 S5        29.75F WCI  23
$$
MNZ001>005-007-008-013>017-022>024-027-028-111300-
   Northwest Minnesota

CITY           SKY/WX    TMP DP  RH WIND       PRES   REMARKS
BEMIDJI        CLOUDY    28  27  94 W6        29.67R WCI  22
HALLOCK        CLOUDY    28  27  93 N20       29.84R WCI  15
ROSEAU         CLOUDY    25  19  80 N18       29.78R WCI  11
WARROAD        LGT SNOW  23  19  86 NW9       29.77R WCI  13
THIEF RVR FALL MIX PCPN  31  29  92 N22G30    29.75R WCI  18
CROOKSTON      MIX PCPN  32  30  93 N37       29.77R WCI  16
FOSSTON        LGT SNOW  30  28  93 NW14G21   29.71R WCI  20
DETROIT LAKES  CLOUDY    34  32  93 NW15      29.71R WCI  24
MOORHEAD       CLOUDY    36  30  80 NW17      29.76R
PARK RAPIDS    CLOUDY    28  26  92 CALM      29.67R
MAHNOMEN       CLOUDY    33  31  92 NW12      29.71R WCI  24
$$
MNZ006-009>011-018-025>026-111300-
   North Central Minnesota

CITY           SKY/WX    TMP DP  RH WIND       PRES   REMARKS
BAUDETTE       CLOUDY    21  19  92 N6        29.72R WCI  13
FLAG ISLAND    CLOUDY    19  18  93 N9        29.77R WCI   9
INTL FALLS     LGT SNOW  20  16  84 NE3       29.71R FOG
6HR MIN TEMP:  15; 6HR MAX TEMP:  20; 6HR PCP:  0.09;

WASKISH        LGT SNOW  25  25 100 NW3       29.70R
GRAND RAPIDS   CLOUDY    22  21  96 SE3       29.69F
ORR            LGT SNOW  18  16  93 CALM      29.66R
COOK           LGT SNOW  19  18  93 CALM      29.68S
WALKER         CLOUDY    27  25  93 W3        29.67S
$$
MNZ012-019>021-037-111300-
   Northeast Minnesota

CITY           SKY/WX    TMP DP  RH WIND       PRES   REMARKS
DULUTH         FRZ DRZL  20  19  96 SE9       29.67F FOG     WCI   9
6HR MIN TEMP:  15; 6HR MAX TEMP:  20; 6HR PCP:  0.06;

ELY            FLURRIES  18  16  93 S3        29.68F
HIBBING        LGT SNOW  19  18  95 S3        29.68F FOG
EVELETH        CLOUDY    18  16  93 CALM      29.69F FOG
DULUTH HARBOR  LGT SNOW  21  19  93 CALM      29.76F
TWO HARBORS    MIX PCPN  21  18  86 CALM      29.71F
G MARAIS ARPRT LGT SNOW  16  12  86 CALM      29.69F
$$
MNZ029>031-032-039>041-046>048-054>057-064-111300-
   West Central Minnesota

CITY           SKY/WX    TMP DP  RH WIND       PRES   REMARKS
FERGUS FALLS   MOCLDY    34  34 100 NW17      29.75R WCI  23
MORRIS         PTCLDY    36  30  80 NW18      29.72R
ALEXANDRIA     PTCLDY    28  25  88 W8        29.69F WCI  20
ELBOW LAKE     FAIR      32  30  91 NW14      29.72R FOG     WCI  22
WADENA         CLOUDY    30  30 100 W6        29.68S WCI  24
GLENWOOD       PTCLDY    30  27  86 W8        29.70S WCI  23
BENSON         MOCLDY    36  28  75 NW9       29.73S
ORTONVILLE     CLOUDY    37  32  81 NW16G23   29.75R
MADISON        LGT RAIN  41  36  81 NW23G32   29.76R
WILLMAR        FAIR      32  30  93 W7        29.72S WCI  26
$$
MNZ033>034-036-042>043-049>051-058-059-111300-
   Central Minnesota

CITY           SKY/WX    TMP DP  RH WIND       PRES   REMARKS
ST CLOUD       FLURRIES  30  28  92 S8        29.71R WCI  22
6HR MIN TEMP:  25; 6HR MAX TEMP:  30; 6HR PCP:  0.08;

SAUK CENTRE    CLOUDY    29  28  93 CALM      29.70F
PAYNESVILLE    CLOUDY    29  28  95 CALM      29.71F
AITKIN         FLURRIES  25  21  86 S7        29.67F WCI  17
PINE RIVER     CLOUDY    25  23  93 CALM      29.72S
BRAINERD       LGT SNOW  28  26  92 SW3       29.69F FOG
STAPLES        MIX PCPN  27  27 100 CALM      29.68S
LONG PRAIRIE   CLOUDY    30  28  93 CALM      29.69S
LITTLE FALLS   LGT SNOW  30  27  86 SE3       29.70F
LITCHFIELD     MIX PCPN  32  32 100 CALM      29.71R
BUFFALO        LGT SNOW  30  27  88 SE5       29.72F WCI  25
MAPLE LAKE     MIX PCPN  31  28  92 S5        29.72S WCI  26
HUTCHINSON     CLOUDY    31  29  93 CALM      29.72S
$$
MNZ037-044-045-052-053-111300-
   East Central Minnesota

CITY           SKY/WX    TMP DP  RH WIND       PRES   REMARKS
PRINCETON      LGT SNOW  28  27  93 SE6       29.70F WCI  22
MORA           CLOUDY    27  27 100 CALM      29.72F FOG
CAMBRIDGE      LGT SNOW  28  25  86 S8        29.71F WCI  20
RUSH CITY      CLOUDY    25  24  93 S5        29.73F WCI  19
MOOSE LAKE     CLOUDY    25  21  86 S5        29.69F FOG     WCI  19
HINCKLEY       CLOUDY    27  25  93 SE3       29.72F
CLOQUET        CLOUDY    19  18  93 SE3       29.68F
MCGREGOR       CLOUDY    27  23  86 S5        29.69F WCI  21
$$
MNZ071>073-080-081-089-090-097-098-111300-
   Southwest Minnesota

CITY           SKY/WX    TMP DP  RH WIND       PRES   REMARKS
MONTEVIDEO     CLOUDY    39  28  65 NW12G17   29.73S
GRANITE FALLS  CLOUDY    40  29  66 W16       29.75S
CANBY          CLOUDY    40  32  72 NW18G29   29.78S
MARSHALL       CLOUDY    40  27  59 NW26      29.74F
REDWOOD FALLS  MOCLDY    38  26  62 W13       29.72S
OLIVIA         PTCLDY    32  28  86 W6        29.71F WCI  26
PIPESTONE      CLOUDY    36  25  64 NW20G29   29.79R
WINDOM           N/A     34  19  55 W12       29.73S WCI  25
WORTHINGTON    PTCLDY    32  25  75 W21       29.76R WCI  20
JACKSON        PTCLDY    34  27  75 MISG      29.74S
TRACY          CLOUDY    39  28  64 NW16      29.75R
$$
MNZ065>067-074>077-082>085-091>093-111300-
   South Central Minnesota

CITY           SKY/WX    TMP DP  RH WIND       PRES   REMARKS
MANKATO        CLOUDY    29  27  92 S7        29.73F WCI  22
NEW ULM        DRIZZLE   34  27  75 CALM      29.71F
ST JAMES       CLOUDY    34  28  80 S7        29.73F WCI  28
FAIRMONT       CLOUDY    30  26  85 E3        29.74F
GLENCOE        CLOUDY    31  29  92 S5        29.72S WCI  26
FARIBAULT      CLOUDY    30  27  86 S7        29.73F WCI  23
WASECA         MOCLDY    30  27  86 S5        29.74F WCI  25
ALBERT LEA     CLOUDY    30  25  80 SW3       29.74F
$$
MNZ078>079-086>088-094>096-111300-
   Southeast Minnesota

CITY           SKY/WX    TMP DP  RH WIND       PRES   REMARKS
ROCHESTER      CLOUDY    27  24  89 S9        29.75F WCI  18
6HR MIN TEMP:  23; 6HR MAX TEMP:  28; 6HR PCP: TRACE;

RED WING       CLOUDY    28  23  80 SE5       29.75F WCI  23
STANTON        CLOUDY    31  26  82 S7        29.72F WCI  25
DODGE CENTER   MOCLDY    28  25  86 S8        29.74F WCI  20
WINONA         CLOUDY    30  27  86 SE8       29.80F WCI  23
AUSTIN         CLOUDY    28  23  80 S6        29.76F WCI  22
PRESTON        CLOUDY    28  23  82 S8        29.77F WCI  19
$$
ABBREVIATIONS USED IN REMARKS
   TC - TEMPERATURES IN CELSIUS
  WCI - WIND CHILL INDEX
   HX - HEAT INDEX
  VSB - VISIBILITY
$$




USA.gov is the U.S. government's official web portal to all federal, state and local government web resources and services.